Regional Weather Roundup
Issued by NWS

Home | Current Version | Previous Version | Graphics & Text | Print | Product List | Glossary On
Versions: 1 2 3 4 5 6 7 8 9 10 11 12 13 14 15 16 17 18 19 20 21 22 23 24 25 26 27 28 29 30 31 32 33 34 35 36 37 38 39 40 41 42 43 44 45 46 47 48 49 50
000
ASUS45 KBOU 290407
RWRCO

WEATHER ROUNDUP FOR COLORADO
NATIONAL WEATHER SERVICE DENVER/BOULDER CO
1000 PM MDT THU MAY 28 2015

NOTE: "FAIR" INDICATES FEW OR NO CLOUDS BELOW 12000 FEET WITH NO
SIGNIFICANT WEATHER AND/OR OBSTRUCTIONS TO VISIBILITY.

COZ001>005-013-030-031-290500-
...NORTHWEST COLORADO...

CITY           SKY/WX    TMP DP  RH WIND       PRES   REMARKS
CRAIG          CLOUDY    47  41  80 NE3       30.23R
HAYDEN         PTCLDY    43  37  81 NE5       30.24R
MEEKER         MOCLDY    46  39  76 E3        30.25R
MOUNT WERNER   NOT AVBL
STEAMBOAT SPGS PTCLDY    42  40  92 CALM      30.25R
WALDEN         CLOUDY    37  34  87 S5        30.26R
$$

COZ006>008-011-290500-
...WEST CENTRAL VALLEYS...

CITY           SKY/WX    TMP DP  RH WIND       PRES   REMARKS
GRAND JUNCTION MOCLDY    55  47  74 NE10      30.15F
MONTROSE       MOCLDY    52  41  66 SE14      30.20R
EAGLE          PTCLDY    57  45  62 E3        30.26R
RIFLE          LGT RAIN  55  39  54 W5        30.22R
DELTA          MOCLDY    57  43  59 CALM      30.19R
NUCLA          MOCLDY    52  43  71 E7        30.23R
$$

COZ017>023-064>068-290500-
...SOUTHWEST COLORADO...

CITY           SKY/WX    TMP DP  RH WIND       PRES   REMARKS
DURANGO        PTCLDY    54  37  52 N7        30.18R
CORTEZ         PTCLDY    57  41  55 NW9       30.19R
PAGOSA SPRINGS PTCLDY    52  37  57 NW3       30.24S
TELLURIDE      MOCLDY    42  39  88 CALM      30.36R
WOLF CREEK PAS NOT AVBL
$$

COZ009-010-012-014-032>034-037-058>063-290500-
...CENTRAL COLORADO...

CITY           SKY/WX    TMP DP  RH WIND       PRES   REMARKS
ASPEN          CLEAR     40  37  89 CALM      30.27R
BUENA VISTA    PTCLDY    47  34  59 NW12      30.25S
COPPER MTN     PTCLDY    34  28  80 W18G25    30.41R WCI  23
BERTHOUD PASS  HAZE      25  18  74 NW26G38   30.41R VSB 1/4 WCI   9
COTTONWOOD PAS PTCLDY    45  32  61 N6        30.31S
GUNNISON       MOCLDY    46  36  66 CALM      30.30R
KREMMLING      MOCLDY    46  36  66 W3        30.27R
LEADVILLE      PTCLDY    36  32  85 N6        30.34R
MONARCH PASS   SNOW      32  32 100 MISG      30.50R VSB<1/4
SALIDA         PTCLDY    53  36  54 NW3       30.30S
SUNLIGHT       CLOUDY    36  32  87 W3        30.42R
WILKERSON PASS PTCLDY    34  28  80 W8        30.40R WCI  27
$$

COZ069>075-290500-
...SAN LUIS VALLEY/SANGRE DE CRISTO MOUNTAINS...

CITY           SKY/WX    TMP DP  RH WIND       PRES   REMARKS
ALAMOSA        MOCLDY    53  35  50 N22G30    30.24R
LA VETA PASS   MOCLDY   N/A N/A N/A MISG      30.35R
SAGUACHE       MOCLDY    46  36  66 N18G26    30.26F
$$

COZ035-036-038>040-290500-
...NORTHERN COLORADO FRONT RANGE...

CITY           SKY/WX    TMP DP  RH WIND       PRES   REMARKS
DENVER INTL AP MOCLDY    54  48  80 E10       30.13R
DMNS CITY PARK   N/A     57  47  68 SE6       30.14R
AURORA         MOCLDY    53  49  87 SE8       30.16R
FRONT RANGE AP NOT AVBL
ERIE MUNI ARPT MOCLDY    58  41  54 CALM      30.11R
BOULDER MUN AP MOCLDY    61  34  36 W10       30.11R
CENTENNIAL     MOCLDY    55  47  74 CALM      30.16R
BROOMFIELD     MOCLDY    57  37  47 W14       30.14R
FORT COLLINS   CLOUDY    57  48  72 S8        30.12R
LONGMONT       CLOUDY    62  48  61 SE3       30.12R
$$

COZ041-046-047-076>085-087-088-290500-
...PIKES PEAK/PALMER DIVIDE AND SOUTHERN FOOTHILLS...

CITY           SKY/WX    TMP DP  RH WIND       PRES   REMARKS
COLO. SPRINGS  MOCLDY    55  47  74 NW9G20    30.19R
A. F. ACADEMY  CLOUDY    50  42  74 N7        30.20R
ELLICOTT         N/A    N/A N/A N/A E8        30.15R THUNDER
FALCON         CLOUDY    51  46  84 N54G104   30.22R
FORT CARSON    MOCLDY    54  48  80 N9        30.16R
LIMON          CLOUDY    52  49  89 NW14      30.14R
MONUMENT HILL  LGT RAIN  45  43  93 N7        30.23S
TRINIDAD       MOCLDY    59  48  67 N12G18    30.08R
$$

COZ042>045-048>051-090-091-290500-
...NORTHEAST COLORADO...

CITY           SKY/WX    TMP DP  RH WIND       PRES   REMARKS
GREELEY ARPT   CLOUDY    61  45  55 W5        30.10R
AKRON          LGT RAIN  53  49  86 N22       30.07S
BURLINGTON     CLOUDY    56  49  77 E7        30.01S
WRAY           CLOUDY    56  52  86 W5        30.02R
STERLING       LGT RAIN  59  46  63 W16G24    30.00F
HOLYOKE        CLOUDY    59  54  82 W16G25    30.04R
FORT MORGAN    CLOUDY    53  48  83 SW5       30.08R
$$

COZ086-089-092>099-290500-
...SOUTHEAST COLORADO...

CITY           SKY/WX    TMP DP  RH WIND       PRES   REMARKS
PUEBLO         MOCLDY    57  52  83 N5        30.08R
LA JUNTA       PTCLDY    59  49  69 S9        30.03R
LAMAR          MOCLDY    56  49  77 S6        29.97R
SPRINGFIELD      N/A     55  50  83 E5        30.02S
$$



USA.gov is the U.S. government's official web portal to all federal, state and local government web resources and services.